Regional Weather Roundup
Issued by NWS Pendleton, OR

Home | Current Version | Previous Version | Text Only | Print | Product List | Glossary On
Versions: 1 2 3 4 5 6 7 8 9 10 11 12 13 14 15 16 17 18 19 20 21 22 23 24 25 26 27 28 29 30 31 32 33 34 35 36 37 38 39 40 41 42 43 44 45 46 47 48 49 50
111
ASUS46 KPDT 302110
RWRPDT
PENDLETON REGIONAL WEATHER ROUNDUP
NATIONAL WEATHER SERVICE PENDLETON OREGON
200 PM PDT SUN APR 30 2017

NOTE: FAIR INDICATES FEW OR NO CLOUDS BELOW 12,000 FEET WITH NO
SIGNIFICANT WEATHER AND/OR OBSTRUCTIONS TO VISIBILITY.

# INDICATES UNOFFICIAL STATION AND DATA

WAZ520-302210-
EAST SLOPES OF WASHINGTON CASCADES

CITY            SKY/WX      TMP DP  RH  WIND    PRES   REMARKS
#CLE ELUM HS    N/A         43  37  79  W7      30.16R
#CLE ELUM LAKE  N/A         43  35  73  W1      30.19R
#GLENWOOD       N/A         54  37  52  SW7     30.18R
#MANASTASH CYN  N/A         50  50  100 CALM    30.12R
#NELSON 3SW     N/A         46  32  58  NE1     30.42R
#NILE           N/A         51  29  42  W8      29.43R
#TEANAWAY 4NE   N/A         49  40  71  W2      N/A
#TROUT LAKE 1NE N/A         51  38  61  W10     30.24S
#TROUT LAKE 1E  N/A         50  35  56  W3      30.28R
$$

WAZ521-302210-
SIMCOE HIGHLANDS

CITY            SKY/WX      TMP DP  RH  WIND    PRES   REMARKS
#BICKLETON HS   N/A         54  35  48  W18     29.77R
#CENTERVILLE 1SWN/A         51  36  56  W25     30.18R
#GOLDENDALE 1NE N/A         53  25  33  SW9     N/A
#GOLDENDALE 4W  N/A         54  11  18  W23     30.22S
#GOODNOE HILLS  N/A         54  36  50  W30G46  N/A
#LYLE 6NE       N/A         51  38  61  SW18G31 30.19F
#PITT 4SE       N/A         48  37  65  W26G35  30.23R WCI 40
$$

WAZ026-302210-
KITTITAS VALLEY

CITY            SKY/WX      TMP DP  RH  WIND    PRES   REMARKS
ELLENSBURG AP   SUNNY       56  32  40  NW28G38 30.16S
#ELLENSBURG CWU N/A         54  31  41  N17     30.08F
#ELLENSBURG 3NE N/A         52  34  50  N15G29  28.22S
#ELLENSBURG 1E  N/A         54  N/A N/A NW2     N/A
#ELLENSBURG 13S N/A         59  20  22  E9      N/A
#KITTITAS 4N    N/A         52  34  50  NW24    30.13F
#KITTITAS 3S    N/A         55  33  43  NW15G28 30.14R
#THORP 6N       N/A         47  34  60  W25G40  30.18R WCI 39
$$

WAZ027-302210-
YAKIMA VALLEY

CITY            SKY/WX      TMP DP  RH  WIND    PRES   REMARKS
YAKIMA AIRPORT  PTCLDY      64  30  28  W23     30.13R
YAKIMA-VAGABOND PTCLDY      60  27  28  NW14    30.11R
#DONALD 2NE     N/A         66   8  10  SW17    28.97R
#GRANDVIEW      N/A         64  24  22  W6      30.11S
#MABTON         N/A         64  33  31  W15G29  30.11R
#MOXEE 2E       N/A         62   0   8  NW12    29.99R
#NACHES 2SW     N/A         58  33  39  W9      30.11S
#TERRACE HTS    N/A         62  33  34  NW6     30.09R
#TOPPENISH      N/A         62  30  30  NW15    30.03R
#WEST VALLEY    N/A         58  29  33  W14     30.11R
#W YAKIMA       N/A         59  33  37  W12     30.13R
#WHITE SWAN 5E  N/A         64  36  35  W9G26   30.13R
$$

WAZ028-302210-
LOWER COLUMBIA BASIN...WASHINGTON

CITY            SKY/WX      TMP DP  RH  WIND    PRES   REMARKS
PASCO           SUNNY       70  29  22  W18G26  30.09S
PROSSER AWOS    N/A         64  30  28  W21     30.14R
RICHLAND AWOS   SUNNY       69  29  22  SW16    30.09S
#BENTON CITY    N/A         63  29  28  W10     29.99F
#CONNELL 5N     N/A         65  34  31  W9      30.06S
#CONNELL 5NW    N/A         63  35  35  W14     30.02R
#ELTOPIA 6NW    N/A         65  39  38  NW15G26 29.06R
#KAHLOTUS       N/A         60  36  41  NW22G32 30.06R
#KENNEWICK 3S   N/A         67  34  29  N2      30.09R
#PATERSON       N/A         62  38  41  W23G36  30.09S
#SAGEMOOR 2W    N/A         64  34  33  W10     29.94R
#TOUCHET 2S     N/A         62  42  48  W15G29  30.09R
#WEST PASCO     N/A         69  35  28  W8      30.10R
$$

WAZ029-302210-
FOOTHILLS OF THE BLUES...WASHINGTON

CITY            SKY/WX      TMP DP  RH  WIND    PRES   REMARKS
WALLA WALLA AP  SUNNY       66  33  29  SW26G35 30.12R
#CLYDE 6NW      N/A         61  38  42  SW15G30 30.05R
#DAYTON SCHOOL  N/A         60  26  27  S9G25   30.11R
#LOWDEN 2SE     N/A         65  37  35  W23G33  30.08R
#PLEASANT VIEW 1N/A         62  37  39  SW9     30.11R
#PRESCOTT       N/A         65  37  35  SW8     30.07R
#WHITMAN COLLEGEN/A         63  33  32  SW18G28 30.16R
#WAITSBURG 5S   N/A         59  34  39  W12     30.20R
#WAITSBURG 8N   N/A         61  N/A N/A S29     29.88R
#WALLA WALLA 5E N/A         63  36  36  W22     N/A
#WHITMAN MISSIONN/A         65  35  33  SW21G30 30.12R
$$

WAZ030-302210-
BLUE MOUNTAINS...WASHINGTON

CITY            SKY/WX      TMP DP  RH  WIND    PRES   REMARKS
#DIXIE 5SE      N/A         54  34  47  W22G35  30.04S
$$

ORZ009-041-WAZ024-302210-
COLUMBIA RIVER GORGE

CITY            SKY/WX      TMP DP  RH  WIND    PRES   REMARKS
THE DALLES AP   PTCLDY      63  35  35  W26G32  30.24S
#ARLINGTON AIRPON/A         57  38  49  W23     30.17R
#CELILO DOT     N/A         60  33  36  W8      N/A
#LYLE           N/A         56  37  49  W24G32  30.27S
#MOSIER 1S      N/A         56  22  26  CALM    30.24S
#MURDOCK        N/A         57  36  45  NW22G32 30.20S
#RUFUS DOT      N/A         60  35  39  W24     N/A
#SMITHVILLE     N/A         59  36  42  W24G32  30.18R

$$

ORZ510-302210-
NORTH CENTRAL OREGON

CITY            SKY/WX      TMP DP  RH  WIND    PRES   REMARKS
#ANTELOPE       N/A         56  30  37  W20G32  30.04S
#CHENOWITH 1W   N/A         48  32  54  NW24    N/A    WCI 40
#COW CYN RST AREN/A         54  26  34  W17     N/A
#DUFUR          N/A         56  37  49  W13G25  30.18R
#DUFUR 9E       N/A         48  33  56  NW28G43 30.27S WCI 40
#GRASS VALLEY 1SN/A         54  36  50  NW14    30.34R
#KENT DOT       N/A         54  27  35  N23     N/A
#MAUPIN SCHOOL  N/A         58  38  47  NW18G29 30.26R
#MORO SCHOOL    N/A         53  38  57  W12     30.28S
#SHANIKO 5WSW   N/A         55  24  30  N18     N/A
#SHANIKO 4NW    N/A         52  27  38  W20G29  30.19S
#TYGH VALLEY 2NEN/A         58  36  44  N16     30.19R
#WAPANITIA AIRPON/A         54  37  52  NW14G24 30.23R
#WASCO DOT      N/A         57  31  37  W20     N/A
#WASCO 5NE      N/A         56  35  45  W20G36  30.19R
$$

ORZ511-302210-
CENTRAL OREGON

CITY            SKY/WX      TMP DP  RH  WIND    PRES   REMARKS
BEND AIRPORT    PTCLDY      61  19  19  NW14    30.19S
MADRAS AIRPORT  PTCLDY      59  28  30  W12     30.23S
PRINEVILLE AP   PTCLDY      59  32  36  W22G30  30.21R
REDMOND AIRPORT PTCLDY      62  24  23  W21G31  30.20R
#ASHWOOD SCHOOL N/A         60  34  37  SW5     30.14S
#BEND 1SW       N/A         62  27  26  NW3     N/A
#BEND-AWBREY    N/A         63  33  32  W5      30.14S
#BEND-KIM LN    N/A         59  28  30  W17G30  30.11S
#CULVER         N/A         58  30  34  SW8     30.10S
#CULVER 8W      N/A         62  25  24  CALM    30.20S
#LAKE BILLY CHINN/A         56  N/A N/A NW14    30.25S
#MADRAS 4S      N/A         58  15  18  SW16    30.28S
#POWELL BUTTE 3EN/A         58  30  34  NW15    N/A
#POWELL BUTTE   N/A         57  27  31  NW20    30.15R
#PRINEVILLE     N/A         58  33  39  NW7     30.25R
#PRINEVILLE 3N  N/A         58  34  40  W18G26  30.16R
#WARM SPRINGS   N/A         63  29  28  CALM    30.15S

$$


ORZ509-302210-
EAST SLOPES OF OREGON CASCADES

CITY            SKY/WX      TMP DP  RH  WIND    PRES   REMARKS
SISTERS AWOS    N/A         55  30  38  W36G45  30.16F
#CAMP SHERMAN   N/A         59  35  40  N3      30.28R
#LA PINE 4NW    N/A         53  27  36  N8      30.24R
#LAVA BUTTE DOT N/A         58  29  33  S2      N/A
#SISTERS 3N     N/A         56  30  37  N13     30.17F
#SUNRIVER       N/A         58  30  34  SW3     30.18S
#TUMALO 3W      N/A         57  17  21  NW18    30.03S
#WANOGA BUTTE D N/A         44  24  45  W8      N/A

$$

ORZ044-302210-
LOWER COLUMBIA BASIN...OREGON

CITY            SKY/WX      TMP DP  RH  WIND    PRES   REMARKS
HERMISTON       SUNNY       65  32  29  W23G36  30.13R
#BOARDMAN SCHOOLN/A         63  38  39  SW17G28 30.12R
#BOARDMAN 8SW   N/A         61  39  44  W25     30.14S
#ECHO 8SW       N/A         61  32  33  W12     30.16R
#I-84 EX 198 DOTN/A         59  40  49  E28     N/A
#IONE SCHOOL    N/A         58  34  40  W20G33  30.17R
$$

ORZ507-302210-
NORTHERN FOOTHILLS OF THE BLUES

CITY            SKY/WX      TMP DP  RH  WIND    PRES   REMARKS
PENDLETON AIRPT PTCLDY      60  39  46  W25G37  30.13R
#ADAMS 3WNW     N/A         58  42  55  W18G26  30.12R
#ATHENA         N/A         58  38  47  W15G28  30.15R
#CAYUSE         N/A         58  42  55  W23G37  30.11R
#HELIX SCHOOL   N/A         59  38  45  W18G36  30.12R
#HELIX 3N       N/A         58  36  44  SW26G33 30.10R
#HOLDMAN 6E     N/A         59  37  44  W22G30  29.92R
#M-F FERNDALE   N/A         66  33  29  CALM    30.09S
#M-F GROVE ELEM N/A         64  29  27  W9      30.11R
#M-FREEWATER 5SEN/A         61  39  44  SW15G26 30.13R
#PENDLETON DNTN N/A         66  39  37  SW7     30.13R
#PDT AQUATIC CTRN/A         62  40  44  W20G26  30.14S
#PDT SUNRIDGE   N/A         61  39  44  W14G25  30.15R
#PENDLETON 7NW  N/A         61  42  50  W20G29  31.51S
#PILOT ROCK 1S  N/A         62  42  48  W14     30.14R
#PILOT ROCK     N/A         62  42  48  NW10    30.15R
#TUTUILLA       N/A         61  43  51  W21G31  30.14R
#UMAPINE 2E     N/A         64  42  45  W15G25  30.10R
#WESTON SCHOOL  N/A         58  35  42  W15G26  30.12R

$$

ORZ508-302210-
SOUTHERN FOOTHILLS OF THE BLUES

CITY            SKY/WX      TMP DP  RH  WIND    PRES   REMARKS
LEXINGTON       SUNNY       61  32  33  W22G32  30.19R
#AJAX           N/A         54  29  38  SW15    30.32R
#CONDON 5W      N/A         51  28  41  W24G37  30.13F
#FOSSIL SCHOOL  N/A         57  34  42  NW15G26 30.10F
#HEPPNER EOC    N/A         56  37  49  W22G35  30.07S
#HEPPNER 4NE    N/A         55  39  55  SW18G33 30.12F
#LEXINGTON 2SE  N/A         61  37  41  NW21G30 30.13S
#OLEX 4N        N/A         56  34  43  W31G41  30.15R
#RUGGS 5NE      N/A         57  35  43  W18G29  30.30F
#RUGGS 2SW      N/A         57  32  38  W18G26  30.16R

$$

ORZ502-503-302210-
BLUE MOUNTAINS

CITY            SKY/WX      TMP DP  RH  WIND    PRES   REMARKS
MEACHAM         CLOUDY      51  35  54  W8      30.15R
#BATTLE MTN DOT N/A         54  26  34  W2      N/A
#GREENHORN 9SW  N/A         55  35  47  NW5     26.31S
#HARDMAN 10S    N/A         53  31  43  W2      30.25R
#LADD CYN SMT   N/A         56  37  49  N14     N/A
#LADD CREEK ODOTN/A         55  38  53  NE8     N/A
#LONG CREEK HS  N/A         54  34  47  N9G26   N/A
#N POWDER DOT   N/A         57  39  51  NE8     N/A
#PIKES PEAK     N/A         49  24  37  N38G48  27.99S WCI 40
#TOLLGATE       N/A         42  33  70  SW3     29.98R
#TROY SCHOOL    N/A         63  37  38  SW6     29.90S
#UKIAH          N/A         57  32  38  W9      30.03R
#WESTON 4E      N/A         53  39  59  SW16G28 30.10R
$$

ORZ505-302210-
JOHN DAY BASIN

CITY            SKY/WX      TMP DP  RH  WIND    PRES   REMARKS
JOHN DAY        PTCLDY      63  34  34  W21G25  30.14S
#ANTELOPE 9ESE  N/A         63  32  31  W16G29  N/A
#DAYVILLE SCHOOLN/A         64  34  33  N9      30.09S
#MITCHELL       N/A         60  37  42  NW6     30.31R
#MITCHELL 8NW   N/A         55  28  35  NW3     30.15S
#MONUMENT HS    N/A         65  29  26  NE12    30.09S
#MT. VERNON 5SE N/A         59  37  44  SW6     30.09S
#SPRAY SCHOOL   N/A         65  N/A N/A CALM    N/A
$$

ORZ506-302210-
OCHOCO AND JOHN DAY HIGHLANDS

CITY            SKY/WX      TMP DP  RH  WIND    PRES   REMARKS
#HORSE RIDGE DO N/A         57  24  28  W16     N/A
#PAULINA ODOT   N/A         59  28  30  W15     N/A
#PINE MTN OBS   N/A         46  27  47  NW7     N/A
#SENECA 9NW     N/A         55  35  47  W3      30.09S
$$

ORZ049-302210-
GRANDE RONDE VALLEY

CITY            SKY/WX      TMP DP  RH  WIND    PRES   REMARKS
LA GRANDE       SUNNY       63  37  38  W16G24  30.11F
#COVE           N/A         58  46  64  N10     30.15S
#COVE SCHOOL    N/A         58  42  55  N2      30.14S
#COVE 6NW       N/A         56  41  57  VRB3    30.10S
#ELGIN 3N       N/A         58  33  39  W6      30.08S
#ELGIN 1E       N/A         58  37  45  CALM    N/A
#IMBLER SCHOOL  N/A         55  42  61  NW3     30.09R
#ISLAND CITY 4N N/A         56  43  62  W3      30.36S
#UNION 1S       N/A         59  43  55  NE6     30.09F
$$

ORZ050-302210-
WALLOWA COUNTY

CITY            SKY/WX      TMP DP  RH  WIND    PRES   REMARKS
JOSEPH AIRPORT  PTCLDY      55  28  35  NW5     30.12R
#IMNAHA SCHOOL  N/A         64  36  35  E7      30.06S
#IMNAHA 10S     N/A         59  36  42  S8      30.06F
#JOSEPH 3N      N/A         55  32  41  W12     30.11S
#JOSEPH 3W      N/A         56  37  49  SW3     29.94R
#LOSTINE        N/A         59  38  45  E2      29.87R
#LOSTINE 3SE    N/A         57  35  43  NW6     30.14S
#MT HOWARD 8000 N/A         34  27  75  W8      30.11R
#PROMISE 1S     N/A         51  33  50  W18     30.16S
#WALLOWA SCHOOL N/A         57  36  45  NW5     30.06R



$$



USA.gov is the U.S. government's official web portal to all federal, state and local government web resources and services.